This is the latest recevied weather packets stored in our database for station/object W2GUX. If no packets are shown the sender has not sent any weather packets the latest 1 day(s).
| Time | Temp. | Humidity | Pressure | Rain* | Wind** | Luminosity | Snow |
|---|---|---|---|---|---|---|---|
| 1836274677 | 19.44° C | 50% | 1015.9 hPa | 0 mm | 0 m/s | - | - |
| 1836274527 | 19.44° C | 50% | 1016 hPa | 0 mm | 0 m/s | - | - |
| 1836274378 | 19.44° C | 49% | 1015.8 hPa | 0 mm | 0 m/s | - | - |
| 1836274228 | 19.44° C | 50% | 1015.9 hPa | 0 mm | 0 m/s | - | - |
| 1836274078 | 20° C | 48% | 1015.7 hPa | 0 mm | 0 m/s | - | - |
| 1778035203 | 22.78° C | 45% | 1006.4 hPa | 0 mm | 1.79 m/s, 192° | - | - |
| 1778034903 | 22.78° C | 44% | 1006.3 hPa | 0 mm | 1.79 m/s, 189° | - | - |
| 1778034603 | 23.33° C | 43% | 1006.4 hPa | 0 mm | 1.79 m/s, 189° | - | - |
| 1778034304 | 23.33° C | 42% | 1006.3 hPa | 0 mm | 1.34 m/s, 198° | - | - |
| 1778034003 | 23.33° C | 41% | 1006.3 hPa | 0 mm | 1.79 m/s, 194° | - | - |
| 1778033704 | 23.33° C | 40% | 1006.2 hPa | 0 mm | 1.79 m/s, 187° | - | - |
| 1778033403 | 23.89° C | 39% | 1006.2 hPa | 0 mm | 1.34 m/s, 189° | - | - |
| 1778033103 | 23.89° C | 38% | 1006.1 hPa | 0 mm | 1.79 m/s, 193° | - | - |
| 1778032803 | 23.89° C | 38% | 1006.1 hPa | 0 mm | 2.68 m/s, 184° | - | - |
| 1778032503 | 23.89° C | 37% | 1006.1 hPa | 0 mm | 2.24 m/s, 182° | - | - |
| 1778032203 | 23.89° C | 36% | 1006.1 hPa | 0 mm | 1.79 m/s, 189° | - | - |
| 1778031903 | 24.44° C | 36% | 1006.1 hPa | 0 mm | 2.24 m/s, 187° | - | - |
| 1778031603 | 24.44° C | 35% | 1005.9 hPa | 0 mm | 2.24 m/s, 184° | - | - |
| 1778031303 | 24.44° C | 35% | 1005.7 hPa | 0 mm | 1.34 m/s, 182° | - | - |
| 1778031004 | 24.44° C | 35% | 1005.7 hPa | 0 mm | 1.34 m/s, 173° | - | - |
| 1778030703 | 24.44° C | 34% | 1005.6 hPa | 0 mm | 1.79 m/s, 179° | - | - |
| 1778030404 | 24.44° C | 34% | 1005.6 hPa | 0 mm | 2.24 m/s, 191° | - | - |
| 1778030103 | 25° C | 33% | 1005.6 hPa | 0 mm | 2.68 m/s, 193° | - | - |
| 1778029804 | 25° C | 33% | 1005.5 hPa | 0 mm | 2.24 m/s, 187° | - | - |
| 1778029503 | 25° C | 33% | 1005.5 hPa | 0 mm | 1.34 m/s, 182° | - | - |
* Rain latest hour (hover to see other rain measurements)
** Current wind speed in m/s (hover to see current wind gust speed)